Starlink 2140

operational
NORAD ID: 47730 Int'l Des: 2021-017 Owner: SPXS Country: US Constellation: starlink
LEOCIRCULARSTARLINK_TYPE

Starlink 2140について

説明を読み込み中...

リアルタイム位置

3D地球を読み込み中...

次回通過

高度履歴

Altitude vs Time

uPlot chart will show altitude changes over time

軌道要素

1 47730U 21017J 25303.75439672 -.00000391 00000-0 -73905-5 0 9992
2 47730 53.0549 79.9300 0001351 89.1784 270.9360 15.06392968258072
Epoch: Oct 30, 2025 • Age: 17 hours

現在のステータス

高度 549.8 km
速度 7.59 km/s
衛星直下点 -8.53°S, 143.41°W
打ち上げ日 Mar 4, 2021
運用期間 4.6 years
タイプ internet

技術仕様

分類 Payload
質量 260.00 kg
乾燥質量 248.00 kg
総質量 260.00 kg
長さ 0.20 m
直径 2.80 m
スパン 9.00 m
形状 Box + pan
製造者 SPXS
バスタイプ Starlink
フェーズステータス In Orbit
所有者/国 SPXS/US

大規模コンステレーション

Loading constellations...